EW1549 Weather Reports


time (UTC)temp
C
wind
direction
speed
KPH
gust
KPH
rain 1hr
cm
rain 24hr
cm
rain mn
cm
humidity
%
barometer
mb
20260903134601 -17 26 16.1 25.7 0.00 0.00 0.00 1017.8
20260903133104 -17 36 17.7 25.7 0.00 0.00 0.00 1018.1
20260903131544 -17 60 14.5 22.5 0.00 0.00 0.00 1017.9
20260903130055 -17 46 14.5 25.7 0.00 0.00 0.00 1018.1
20260903124550 -17 25 19.3 29.0 0.00 0.00 0.00 1018.3
20260903123032 -17 36 9.7 22.5 0.00 0.00 0.00 1018.5
20260903121532 -17 60 9.7 17.7 0.00 0.00 0.00 1018.5
20260903120022 -17 10 8.0 20.9 0.00 0.00 0.00 1018.6
20260903114518 -17 27 3.2 20.9 0.00 0.00 0.00 1018.6
20260903113013 -17 36 8.0 19.3 0.00 0.00 0.00 1018.8
20260903111508 -17 46 12.9 19.3 0.00 0.00 0.00 1018.9
20260903110004 -17 46 9.7 19.3 0.00 0.00 0.00 1018.7
20260903104604 -17 41 6.4 14.5 0.00 0.00 0.00 1018.5
20260903103056 -17 185 0.0 0.0 0.00 0.00 0.00 1018.4
20260903101554 -17 185 0.0 0.0 0.00 0.00 0.00 1018.2
20260903100049 -17 185 0.0 0.0 0.00 0.00 0.00 1018.3
20260903094550 -17 185 0.0 0.0 0.00 0.00 0.00 1018.1
20260903093038 -17 185 0.0 0.0 0.00 0.00 0.00 1017.9
20260903091535 -17 185 0.0 0.0 0.00 0.00 0.00 1017.9
20260903090037 -17 185 0.0 0.0 0.00 0.00 0.00 1017.8
20260903084531 -17 185 0.0 0.0 0.00 0.00 0.00 1017.3
20260903083022 -17 185 0.0 0.0 0.00 0.00 0.00 1017.5
20260903081518 -17 185 0.0 0.0 0.00 0.00 0.00 1017.6
20260903080012 -17 185 0.0 0.0 0.00 0.00 0.00 1017.6
20260903074507 -17 185 0.0 0.0 0.00 0.00 0.00 1017.6
20260903073005 -17 185 0.0 0.0 0.00 0.00 0.00 1017.6
20260903071620 -17 185 0.0 4.8 0.00 0.00 0.00 1017.4
20260903070055 -17 183 0.0 8.0 0.00 0.00 0.00 1017.5
20260903064550 -17 196 4.8 9.7 0.00 0.00 0.00 1017.6
20260903063049 -17 195 6.4 9.7 0.00 0.00 0.00 1017.6
20260903061542 -17 183 0.0 0.0 0.00 0.00 0.00 1017.6
20260903060108 -17 107 0.0 0.0 0.00 0.00 0.00 1017.7
20260903054535 -17 107 0.0 1.6 0.00 0.00 0.00 1017.4
20260903053029 -17 94 0.0 0.0 0.00 0.00 0.00 1017.4
20260903051524 -17 94 1.6 6.4 0.00 0.00 0.00 1017.5
20260903050020 -17 200 0.0 3.2 0.00 0.00 0.00 1017.6
20260903044515 -17 200 1.6 11.3 0.00 0.00 0.00 1017.5
20260903043022 -17 232 4.8 11.3 0.00 0.00 0.00 1017.6
20260903041507 -17 212 9.7 20.9 0.00 0.00 0.00 1017.3
20260903040003 -17 191 16.1 22.5 0.00 0.00 0.00 1017.1
20260903034558 -17 222 12.9 19.3 0.00 0.00 0.00 1017.4
20260903033051 -17 225 4.8 9.7 0.00 0.00 0.00 1017.1
20260903031547 -17 252 6.4 11.3 0.00 0.00 0.00 1017.1
20260903030043 -17 215 8.0 14.5 0.00 0.00 0.00 1017.1
20260903024529 -17 210 11.3 16.1 0.00 0.00 0.00 1017.1
20260903023042 -17 219 8.0 9.7 0.00 0.00 0.00 1017.1
20260903021521 -17 231 0.0 0.0 0.00 0.00 0.00 1016.9
20260903020015 -17 231 0.0 0.0 0.00 0.00 0.00 1017.0
20260903014510 -17 231 0.0 9.7 0.00 0.00 0.00 1017.1
20260903013006 -17 232 4.8 9.7 0.00 0.00 0.00 1017.3
20260903011501 -17 238 4.8 8.0 0.00 0.00 0.00 1017.3
20260903010057 -17 237 3.2 9.7 0.00 0.00 0.00 1017.5
20260903004554 -17 223 6.4 12.9 0.00 0.00 0.00 1017.6
20260903003048 -17 235 4.8 8.0 0.00 0.00 0.00 1017.8
20260903001549 -17 236 6.4 11.3 0.00 0.00 0.00 1017.6
20260903000040 -17 246 6.4 9.7 0.00 0.00 0.00 1017.5
20260902234550 -17 241 4.8 8.0 0.00 0.00 0.00 1017.4
20260902233032 -17 241 0.0 0.0 0.00 0.00 0.00 1017.4
20260902231612 -17 241 0.0 6.4 0.00 0.00 0.00 1017.4
20260902230108 -17 241 3.2 8.0 0.00 0.00 0.00 1017.4
20260902224554 -17 266 1.6 8.0 0.00 0.00 0.00 1017.3
20260902223054 -17 36 0.0 0.0 0.00 0.00 0.00 1017.2
20260902221553 -17 53 0.0 9.7 0.00 0.00 0.00 1017.4
20260902220101 -17 65 4.8 14.5 0.00 0.00 0.00 1017.3
20260902214552 -17 67 0.0 6.4 0.00 0.00 0.00 1017.4
20260902213052 -17 251 0.0 0.0 0.00 0.00 0.00 1017.4
20260902211554 -17 269 0.0 0.0 0.00 0.00 0.00 1017.5
20260902210055 -17 275 3.2 8.0 0.00 0.00 0.00 1017.4
20260902204553 -17 219 0.0 6.4 0.00 0.00 0.00 1017.2
20260902203046 -17 41 4.8 14.5 0.00 0.00 0.00 1017.1
20260902201542 -17 36 0.0 19.3 0.00 0.00 0.00 1016.8
20260902200036 -17 51 12.9 19.3 0.00 0.00 0.00 1016.6
20260902194533 -17 41 9.7 19.3 0.00 0.00 0.00 1016.6
20260902193028 -17 69 6.4 20.9 0.00 0.00 0.00 1016.6
20260902191522 -17 14 8.0 24.1 0.00 0.00 0.00 1016.8
20260902190019 -17 50 14.5 24.1 0.00 0.00 0.00 1016.7
20260902184514 -17 36 9.7 25.7 0.00 0.00 0.00 1016.6
20260902183010 -17 55 12.9 20.9 0.00 0.00 0.00 1016.7
20260902181505 -17 56 6.4 19.3 0.00 0.00 0.00 1016.6
20260902180000 -17 58 14.5 22.5 0.00 0.00 0.00 1016.8
20260902174604 -17 56 17.7 30.6 0.00 0.00 0.00 1016.9
20260902173053 -17 36 16.1 30.6 0.00 0.00 0.00 1017.1
20260902171558 -17 57 22.5 32.2 0.00 0.00 0.00 1017.2
20260902170043 -17 36 14.5 33.8 0.00 0.00 0.00 1017.3
20260902164539 -17 36 25.7 35.4 0.00 0.00 0.00 1017.3
20260902163035 -17 41 19.3 37.0 0.00 0.00 0.00 1017.3
20260902161540 -17 50 24.1 41.8 0.00 0.00 0.00 1017.1
20260902160028 -17 36 17.7 37.0 0.00 0.00 0.00 1017.0
20260902154530 -17 62 17.7 37.0 0.00 0.00 0.00 1016.9
20260902153018 -17 25 22.5 35.4 0.00 0.00 0.00 1016.9
20260902151514 -17 36 12.9 38.6 0.00 0.00 0.00 1017.3
20260902150009 -17 87 20.9 41.8 0.00 0.00 0.00 1017.3
20260902144511 -17 89 19.3 35.4 0.00 0.00 0.00 1017.6
20260902143008 -17 60 20.9 35.4 0.00 0.00 0.00 1017.4
20260902141516 -17 30 14.5 33.8 0.00 0.00 0.00 1017.5
20260902140007 -17 92 17.7 30.6 0.00 0.00 0.00 1017.5